Location: Cabeza de los Veneras
(40.2000°N, 5.2000°W)
Time: 22:05:55
(UTC+00:00)

CARTOSAT-1 - Visible Passes

Search period start: 21 July 2024 00:00
Search period end: 31 July 2024 00:00
Orbit: 605 x 608 km, 97.6° (Epoch: 21 July)

Date Brightness Start Highest point End Pass type
(mag) Time Alt. Az. Time Alt. Az. Time Alt. Az.
21 Jul 5.2 20:52:23 10° SSW 20:56:12 32° W 21:00:04 10° NNW visible
22 Jul 5.7 21:06:01 10° SSW 21:09:26 23° W 21:12:52 10° NW visible
23 Jul 6.2 21:19:54 10° SW 21:22:40 17° W 21:25:27 10° NW visible
24 Jul 6.4 21:34:19 10° WSW 21:35:55 12° W 21:37:32 10° WNW visible
25 Jul 3.5 20:08:34 10° SSE 20:12:49 80° ENE 20:17:06 10° N visible
26 Jul 3.8 20:21:41 10° S 20:25:56 72° W 20:30:11 10° NNW visible
27 Jul 4.4 20:34:55 10° S 20:39:03 50° W 20:43:13 10° NNW visible
28 Jul 5.0 20:48:17 10° SSW 20:52:12 35° W 20:56:07 10° NNW visible
29 Jul 5.6 21:01:50 10° SSW 21:05:21 25° W 21:08:54 10° NW visible
30 Jul 6.1 21:15:34 10° SW 21:18:32 18° W 21:21:30 10° NW visible
